Temp
75 74 73 72 72 72 72 72 72 72 73 73 73 73 73 70 61 60 60 62 68 74 75 76 77 76 76 76 76 76 76 75 76
75 74 73 72 72 72 72 72 72 72 73 73 73 73 72 65 61 60 59 60 70 73 75 75 76 77 77 76 76 76 77 77 76
75 74 73 73 72 72 73 73 73 73 73 73 73 72 70 66 62 61 60 64 71 73 75 75 76 76 77 77 77 76 76 76 76
75 74 74 73 73 73 73 73 73 73 73 73 72 71 70 65 63 63 62 66 71 74 74 75 76 76 76 77 76 76 76 76 76
74 72 73 73 73 73 73 73 73 73 72 72 71 70 68 62 61 61 61 70 73 75 75 75 76 76 76 76 76 76 76 75 75
64 67 69 71 72 72 73 73 72 71 69 68 68 67 61 60 60 60 66 71 74 75 75 75 75 75 75 75 75 76 76 76 75
65 64 67 69 70 70 71 70 69 65 61 60 63 59 59 59 59 61 70 72 75 75 75 75 75 75 75 74 75 75 76 76 75
60 59 59 59 63 61 62 61 60 60 59 59 58 58 57 57 58 62 68 71 73 74 74 74 74 74 74 75 75 74 73 73 73
58 58 58 58 59 59 59 58 59 60 61 63 62 56 55 55 56 56 65 68 71 72 73 73 73 73 73 73 72 72 72 72 72
58 57 58 58 59 59 58 59 62 61 61 57 55 55 53 53 53 52 62 65 67 70 70 70 70 70 70 71 71 70 70 70 70
59 59 57 57 57 62 60 55 54 52 52 52 52 51 51 51 51 51 50 62 64 66 67 67 67 67 68 69 68 68 68 69 69
62 60 59 58 57 55 54 52 51 49 50 49 50 50 48 49 50 49 49 50 58 62 63 63 64 64 65 66 66 67 67 67 66
60 58 55 57 52 51 49 47 47 46 45 46 48 47 47 47 47 48 47 48 49 53 59 59 60 61 62 64 64 65 65 64 64
59 56 52 50 48 46 48 46 45 43 45 47 47 45 44 46 49 46 46 47 46 46 53 55 55 57 59 61 61 62 62 62 62
56 51 49 48 46 45 45 45 44 42 41 47 47 42 43 44 43 44 47 45 45 44 45 43 45 54 56 57 58 59 60 60 60
53 48 47 46 45 43 45 43 42 41 41 40 41 41 42 42 43 43 42 43 44 43 45 45 44 45 52 53 55 57 57 58 59
49 46 45 45 44 43 41 40 40 39 38 37 35 34 38 41 46 40 43 40 41 43 47 42 43 42 42 45 53 53 54 56 58
47 45 44 43 42 40 39 39 39 37 38 37 37 33 31 33 38 40 39 41 38 42 41 42 43 42 41 45 45 50 53 54 56
46 45 43 42 41 40 40 41 37 37 35 36 41 37 35 30 30 35 40 36 41 37 36 40 40 41 41 44 48 50 51 53 55
45 44 42 41 40 39 38 37 37 36 35 34 34 33 33 32 29 29 31 37 39 39 37 37 40 41 40 39 42 49 51 52 53
MSLP
1014.98 1015.23 1015.21 1015.38 1015.48 1015.45 1015.54 1015.46 1015.52 1015.70 1015.72 1015.80 1015.66 1015.70 1015.71 1015.71 1016.00 1016.04 1016.07 1016.08 1015.93 1015.63 1015.40 1015.26 1015.10 1015.12 1015.18 1015.22 1015.13 1015.10 1015.12 1015.22 1015.21
1015.11 1015.38 1015.29 1015.45 1015.59 1015.51 1015.61 1015.51 1015.55 1015.76 1015.68 1015.81 1015.68 1015.67 1015.75 1015.85 1015.90 1015.94 1015.92 1015.91 1015.61 1015.35 1015.13 1014.98 1014.80 1014.65 1014.65 1014.79 1014.75 1014.81 1014.73 1014.79 1014.86
1015.07 1015.46 1015.39 1015.54 1015.66 1015.58 1015.66 1015.51 1015.50 1015.67 1015.57 1015.64 1015.65 1015.70 1015.70 1015.77 1015.80 1015.81 1015.71 1015.63 1015.39 1015.10 1014.88 1014.72 1014.58 1014.42 1014.35 1014.45 1014.43 1014.44 1014.43 1014.42 1014.39
1014.98 1015.40 1015.44 1015.51 1015.55 1015.53 1015.55 1015.56 1015.62 1015.59 1015.56 1015.52 1015.59 1015.60 1015.62 1015.63 1015.64 1015.56 1015.48 1015.39 1015.10 1014.82 1014.59 1014.39 1014.26 1014.15 1014.04 1013.95 1014.04 1014.11 1014.16 1014.11 1014.09
1014.98 1015.37 1015.47 1015.49 1015.58 1015.47 1015.56 1015.52 1015.57 1015.55 1015.51 1015.41 1015.52 1015.54 1015.54 1015.53 1015.51 1015.40 1015.33 1015.01 1014.68 1014.37 1014.14 1013.99 1013.83 1013.70 1013.58 1013.51 1013.56 1013.59 1013.67 1013.68 1013.68
1015.23 1015.54 1015.54 1015.47 1015.57 1015.48 1015.46 1015.50 1015.46 1015.48 1015.46 1015.40 1015.59 1015.59 1015.60 1015.58 1015.45 1015.32 1015.03 1014.62 1014.27 1013.94 1013.73 1013.56 1013.48 1013.40 1013.31 1013.26 1013.24 1013.19 1013.14 1013.11 1013.15
1015.39 1015.51 1015.46 1015.43 1015.43 1015.57 1015.60 1015.53 1015.59 1015.56 1015.47 1015.49 1015.50 1015.60 1015.53 1015.54 1015.46 1015.25 1014.88 1014.48 1014.04 1013.80 1013.63 1013.42 1013.23 1013.09 1012.97 1012.88 1012.75 1012.63 1012.55 1012.59 1012.52
1015.47 1015.48 1015.54 1015.45 1015.37 1015.70 1015.76 1015.66 1015.75 1015.74 1015.63 1015.64 1015.62 1015.72 1015.73 1015.71 1015.53 1015.31 1014.96 1014.53 1014.17 1013.92 1013.71 1013.51 1013.35 1013.20 1013.00 1012.74 1012.61 1012.48 1012.33 1012.33 1012.28
1015.64 1015.54 1015.50 1015.41 1015.53 1015.71 1015.82 1015.67 1015.83 1015.97 1015.83 1015.81 1015.72 1015.95 1015.96 1015.91 1015.74 1015.54 1015.16 1014.80 1014.46 1014.14 1013.91 1013.75 1013.60 1013.36 1013.25 1013.04 1013.01 1012.78 1012.58 1012.47 1012.35
1015.52 1015.63 1015.46 1015.55 1015.74 1015.86 1016.00 1016.00 1015.85 1016.08 1016.07 1016.19 1016.15 1016.15 1016.21 1016.09 1015.92 1015.78 1015.41 1015.17 1014.86 1014.47 1014.38 1014.19 1013.97 1013.88 1013.66 1013.46 1013.27 1013.09 1012.92 1012.78 1012.60
1015.35 1015.73 1015.83 1016.04 1016.11 1016.17 1016.18 1016.71 1016.62 1016.79 1016.70 1016.53 1016.43 1016.43 1016.42 1016.29 1016.17 1016.05 1015.92 1015.56 1015.36 1015.05 1014.84 1014.78 1014.62 1014.47 1014.14 1013.80 1013.63 1013.42 1013.17 1012.95 1012.69
1015.10 1015.80 1016.01 1016.59 1016.64 1016.68 1016.70 1016.92 1017.01 1017.04 1016.90 1016.78 1016.56 1016.54 1016.49 1016.41 1016.37 1016.29 1016.17 1016.12 1015.91 1015.62 1015.51 1015.44 1015.23 1014.94 1014.54 1014.18 1013.87 1013.49 1013.20 1012.98 1012.83
1015.40 1016.01 1016.36 1016.87 1017.02 1016.98 1017.04 1017.24 1017.27 1017.34 1017.24 1016.98 1016.59 1016.65 1016.64 1016.56 1016.57 1016.45 1016.39 1016.43 1016.44 1016.26 1015.99 1015.90 1015.73 1015.43 1014.97 1014.50 1014.07 1013.68 1013.34 1013.13 1012.85
1015.85 1016.28 1016.82 1017.16 1017.24 1017.35 1017.35 1017.57 1017.64 1017.91 1017.50 1017.02 1016.53 1016.48 1016.59 1016.74 1016.68 1016.67 1016.63 1016.65 1016.66 1016.62 1016.40 1016.26 1016.13 1015.76 1015.31 1014.80 1014.43 1014.01 1013.49 1013.25 1012.93
1016.08 1016.50 1016.92 1017.27 1017.49 1017.76 1017.76 1017.98 1018.13 1018.31 1018.15 1017.42 1016.93 1016.69 1016.61 1016.76 1016.88 1016.84 1016.74 1016.86 1016.80 1016.74 1016.59 1016.44 1016.30 1015.93 1015.49 1015.06 1014.68 1014.12 1013.59 1013.29 1012.87
1016.39 1016.90 1017.29 1017.68 1017.89 1018.40 1018.30 1018.32 1018.68 1018.59 1018.38 1017.88 1017.41 1016.92 1016.79 1016.86 1016.94 1016.82 1016.97 1017.01 1016.89 1016.76 1016.52 1016.46 1016.31 1016.01 1015.58 1015.21 1014.74 1013.99 1013.63 1013.21 1012.63
1016.79 1017.18 1017.69 1018.02 1018.36 1018.71 1018.66 1018.75 1019.21 1019.38 1019.22 1019.25 1019.04 1018.64 1017.61 1017.04 1016.58 1016.85 1016.93 1016.89 1016.80 1016.72 1016.68 1016.62 1016.27 1015.92 1015.62 1015.26 1014.58 1014.12 1013.69 1012.98 1012.43
1017.19 1017.43 1017.92 1018.40 1018.62 1018.97 1019.24 1019.49 1019.54 1019.89 1019.81 1019.73 1019.70 1019.64 1019.80 1019.01 1017.55 1017.10 1017.10 1017.05 1017.19 1017.15 1016.93 1016.58 1016.11 1015.74 1015.44 1015.01 1014.57 1014.00 1013.39 1012.77 1012.04
1017.44 1017.82 1018.24 1018.60 1018.93 1019.22 1019.53 1019.78 1019.87 1019.98 1020.45 1020.14 1019.98 1020.17 1020.37 1020.15 1018.82 1017.78 1017.27 1017.46 1017.33 1017.08 1016.74 1016.36 1015.90 1015.51 1015.11 1014.69 1014.23 1013.64 1012.96 1012.24 1011.59
1017.90 1018.14 1018.53 1018.98 1019.31 1019.58 1019.79 1019.92 1020.04 1020.20 1020.56 1020.60 1020.59 1020.51 1020.38 1020.39 1020.60 1018.84 1017.79 1017.46 1017.11 1016.82 1016.49 1016.10 1015.46 1015.04 1014.70 1014.36 1013.91 1013.16 1012.52 1011.89 1011.15
Wind_Speed
5 4 4 3 2 2 2 2 1 1 2 3 3 3 4 2 2 3 4 4 8 10 9 10 10 11 10 10 12 11 10 11 13
5 6 4 3 3 2 2 2 1 2 3 5 5 5 4 2 3 4 4 5 10 10 10 11 11 11 10 12 11 12 13 14 14
7 6 4 3 3 2 1 2 2 4 5 7 9 8 6 4 4 5 5 9 12 11 10 12 12 13 12 12 13 13 15 15 15
7 7 6 5 4 3 4 4 5 6 6 7 8 8 8 5 4 5 4 10 13 13 12 11 12 14 13 13 14 14 15 16 16
2 1 4 4 4 5 6 6 6 7 7 8 8 8 8 5 5 4 4 13 15 15 14 14 15 15 15 14 15 15 16 16 16
2 3 4 5 6 6 6 6 6 6 6 7 8 8 3 4 3 3 10 12 12 13 15 14 14 16 17 16 17 17 18 17 18
2 3 5 7 6 7 7 7 7 5 3 3 5 3 4 3 3 2 11 11 10 11 12 13 12 12 12 14 16 18 19 18 19
1 2 2 2 3 2 3 4 3 4 3 4 4 4 4 3 3 5 12 11 11 11 11 11 12 13 13 14 13 14 13 16 19
1 1 2 2 1 1 1 2 4 5 5 5 5 5 4 3 3 5 12 11 11 12 11 12 13 14 15 15 15 14 13 13 14
1 1 2 3 2 3 3 4 4 5 5 5 5 5 5 5 3 3 11 13 13 13 14 13 15 15 15 15 14 15 15 15 14
4 3 4 4 4 4 4 4 4 4 4 5 5 4 4 4 4 4 4 13 14 13 14 14 15 16 15 15 15 15 15 14 14
6 4 5 4 3 5 4 4 4 4 4 5 4 4 5 3 4 4 4 5 13 14 15 16 16 17 17 16 17 16 15 14 14
6 5 5 4 4 3 4 4 3 4 4 4 4 3 3 3 5 4 4 4 4 9 16 18 19 19 19 18 18 17 17 17 17
6 5 5 4 4 4 4 4 4 4 6 5 5 4 2 2 3 5 5 6 5 4 12 16 17 19 18 18 18 20 17 18 18
7 6 6 5 5 5 5 5 5 3 4 4 5 4 2 3 3 4 3 5 5 4 5 4 6 18 18 17 19 21 18 20 20
8 6 6 5 6 5 5 3 5 5 6 4 5 3 3 2 1 2 2 3 3 3 6 5 5 6 17 16 23 20 19 22 20
7 7 6 6 5 6 6 6 3 3 5 3 1 5 6 4 6 2 2 4 5 7 11 7 8 6 5 9 22 19 22 21 22
7 7 6 6 5 5 5 4 5 3 4 6 3 4 3 4 4 4 3 7 4 7 6 8 7 7 5 10 13 17 22 23 24
7 8 6 6 4 6 4 4 3 2 3 2 3 1 2 3 7 3 6 3 9 6 5 7 7 7 6 11 17 22 23 24 27
7 7 7 6 4 5 6 5 5 3 2 1 1 1 2 1 2 9 6 9 8 7 4 6 8 7 6 6 10 21 25 27 28
Wind_Direction
158 158 139 138 131 122 113 92 75 9 341 325 322 320 316 34 309 298 293 306 290 289 285 289 275 248 255 260 270 271 272 272 271
172 187 164 164 172 156 165 138 142 280 285 286 292 294 297 296 284 284 281 279 286 285 272 268 277 276 258 249 254 261 262 262 260
185 202 197 205 211 204 257 288 299 292 313 318 324 338 315 297 285 280 277 283 288 287 279 266 270 282 259 264 277 271 275 272 267
194 220 216 224 237 263 289 306 298 302 304 312 313 318 312 304 284 285 275 282 288 286 279 274 265 268 276 259 254 261 269 273 276
177 233 230 253 274 296 305 311 309 307 309 316 316 311 314 315 308 290 285 299 299 290 282 273 267 264 263 258 255 255 261 265 267
326 291 271 283 291 308 307 312 312 320 336 337 335 339 328 316 304 296 310 320 313 310 307 301 295 282 277 273 272 260 258 262 262
267 303 306 291 296 321 337 345 350 1 347 344 2 360 359 357 341 340 358 348 343 337 340 345 346 343 329 294 279 272 268 265 266
343 332 323 333 11 354 337 353 358 4 22 29 37 28 22 14 8 357 5 1 356 352 348 355 2 358 347 345 351 346 323 298 287
317 305 335 22 16 327 347 48 62 44 42 38 35 23 15 4 356 0 13 9 9 7 5 7 5 10 10 10 11 6 8 9 10
137 51 70 65 76 72 61 51 61 41 28 26 21 15 13 2 9 14 25 32 24 24 23 13 20 14 9 5 3 5 5 3 357
129 97 69 57 53 42 56 48 46 41 16 16 8 14 9 7 46 23 23 44 36 30 32 27 20 8 360 360 355 348 343 340 340
111 91 82 54 50 68 56 47 43 35 10 7 351 7 359 36 43 37 41 40 35 37 32 21 10 3 354 349 342 338 337 339 334
101 104 81 73 57 59 63 32 42 25 9 335 330 358 0 83 41 55 49 49 34 27 30 14 7 357 350 345 341 338 331 331 325
107 101 92 81 66 50 47 45 50 19 352 330 326 351 5 108 45 57 56 43 31 26 18 14 1 353 345 338 340 331 326 323 321
101 86 81 72 67 41 41 56 36 40 330 319 316 329 343 125 56 47 38 35 27 15 9 354 343 344 339 335 333 323 322 320 312
95 91 81 69 71 63 40 56 39 15 345 358 335 342 11 289 7 42 42 18 0 7 4 350 331 320 328 325 327 321 318 314 311
93 95 84 75 80 59 47 43 34 14 13 19 319 1 335 353 317 16 32 8 8 5 343 323 315 304 306 304 323 312 316 310 308
93 87 87 81 81 77 64 52 54 34 3 33 87 3 309 327 321 336 359 355 2 325 307 301 295 292 288 304 306 301 308 305 302
87 88 87 83 76 70 68 61 67 95 39 346 33 69 195 314 321 316 320 1 321 292 284 291 289 287 284 288 302 306 303 303 303
81 81 77 75 74 76 73 59 55 58 105 92 354 342 312 56 263 300 309 308 309 297 293 290 296 289 281 284 285 298 307 304 301